Location: Gerindote
(39.9659°N, 4.3028°W)
Time: 01:35:23
(UTC+00:00)

Daily predictions for brighter satellites

Satellite Brightness Start Highest point End
(mag) Time Altitude Azimuth Time Altitude Azimuth Time Altitude Azimuth
SL-08 ROCKET BODY 4.4 00:11:57 65° ESE 00:12:19 66° E 00:18:14 10° NNE
NOSS 3-4 (A) 3.8 00:06:46 10° NW 00:13:52 79° WSW 00:15:35 58° SSE
Cosmos 1975 Rocket 4.1 00:14:30 38° NW 00:14:30 38° NW 00:18:00 10° N
NOSS 3-4 (C) 3.8 00:06:51 10° NW 00:13:57 80° WSW 00:15:41 58° SSE
Cosmos 44 3.8 00:19:22 48° NNE 00:19:22 48° NNE 00:22:34 10° NNE
Cosmos 1818 3.5 00:13:40 10° NNW 00:19:07 78° ENE 00:19:09 78° ENE
Cosmos 2228 4.0 00:22:59 10° NNW 00:25:54 41° NW 00:25:54 41° NW
Cosmos 1656 4.2 00:33:45 47° E 00:33:45 47° E 00:38:46 10° NE
Meteor 2-20 4.5 00:29:06 10° NNW 00:35:11 62° W 00:35:36 61° WSW
Cosmos 923 Rocket 4.3 00:34:33 10° N 00:39:40 55° ENE 00:39:56 55° E
Cosmos 381 Rocket 4.3 00:36:40 10° NNW 00:43:02 89° ENE 00:43:46 72° SSE
Cosmos 1400 Rocket 4.1 00:41:04 10° N 00:43:29 37° N 00:43:29 37° N
EO 1 Delta rocket 4.0 00:46:45 66° NW 00:46:45 66° NW 00:50:48 10° NNW
Cosmos 1937 Rocket 3.5 00:47:15 71° NW 00:47:15 71° NW 00:52:12 10° NNE
ISS -0.2 00:51:04 10° NNW 00:52:13 11° N 00:53:22 10° NNE
Cosmos 858 Rocket 4.4 00:54:37 82° NNW 00:54:37 82° NNW 00:59:37 10° NNE
Cosmos 2315 Rocket 4.2 00:53:33 10° N 00:59:55 67° E 01:01:14 54° SE
USA 215 4.5 01:04:43 25° W 01:04:43 25° W 01:08:31 10° WNW
DELTA 2 R/B (1) 4.4 01:07:24 38° ESE 01:07:24 38° ESE 01:11:04 10° E
Meteor 2-3 Rocket 4.2 01:10:11 46° ESE 01:11:01 50° E 01:16:36 10° NNE
CZ-2C R/B 2.7 01:11:03 63° SE 01:11:46 72° ENE 01:17:17 10° N
DNEPR-1 R/B 3.9 01:08:35 10° NNW 01:12:14 60° N 01:12:14 60° N
Cosmos 1655 Rocket 3.9 01:20:19 63° SSW 01:21:27 85° W 01:27:54 10° N
Cosmos 2266 Rocket 4.5 01:21:32 44° WSW 01:22:38 48° WNW 01:28:48 10° N
Cosmos 1606 Rocket 4.0 01:19:42 10° NNW 01:23:12 54° NW 01:23:12 54° NW
Cosmos 2058 Rocket 4.0 01:20:56 10° N 01:25:07 41° ENE 01:25:27 40° E
Cosmos 1315 Rocket 4.2 01:21:49 10° NNE 01:25:07 30° ENE 01:25:07 30° ENE
IDEFIX/ARIANE 42P 3.2 01:26:35 10° NNE 01:31:32 43° E 01:32:15 41° ESE
Cosmos 2360 4.1 01:36:32 63° WSW 01:37:22 75° WNW 01:43:05 10° NNE
CZ-2C R/B 3.1 01:34:19 10° N 01:39:01 54° WNW 01:39:09 54° W
CZ-4C R/B 4.0 01:36:56 13° WNW 01:39:27 19° NW 01:43:13 10° N
Nimbus 7 Rocket 4.4 01:40:19 10° N 01:46:20 74° WNW 01:47:44 54° SW
ADEOS II 4.3 01:44:17 10° NE 01:47:29 16° E 01:50:13 11° SE
Cosmos 494 Rocket 3.8 01:43:19 10° NNW 01:48:34 84° WSW 01:49:10 70° S
Cosmos 1726 Rocket 4.3 01:49:01 10° NNW 01:52:49 43° WNW 01:52:49 43° WNW
Cosmos 2297 Rocket 2.1 01:49:30 10° NNW 01:55:11 88° WSW 01:56:45 50° SSE
Cosmos 1892 Rocket 4.3 01:55:42 40° WNW 01:55:42 40° WNW 01:59:30 10° N
Cosmos 1244 Rocket 4.4 01:55:36 51° SSW 01:57:19 85° W 02:03:40 10° N
MOZ.5/SAFIR/RUBIN 5/SL-8 4.5 01:56:34 33° SE 01:58:13 49° ENE 02:02:41 10° N
Cosmos 2112 Rocket 4.4 01:53:44 10° NNW 01:58:36 46° W 01:58:36 46° W
CZ-2D R/B 3.5 01:54:29 10° NE 01:59:02 29° E 02:01:07 22° SE
SL-19 R/B 4.4 01:53:19 10° NNE 01:59:10 81° WNW 02:00:57 49° SSW
Cosmos 1758 Rocket 3.8 02:05:25 53° SE 02:06:00 58° E 02:10:18 10° NNE
Spot 2 4.2 02:07:01 54° WNW 02:07:01 54° WNW 02:10:37 10° NNW
Nadezhda 2 Rocket 4.5 02:04:40 47° SSW 02:06:41 80° W 02:13:09 10° N
Cosmos 1980 Rocket 2.9 02:05:14 34° SSE 02:06:55 44° ESE 02:12:12 10° NE
H-2A R/B 3.9 02:09:34 22° WNW 02:09:34 22° WNW 02:11:26 10° NW
Tiangong -0.2 02:10:34 25° E 02:10:34 25° E 02:12:10 10° E
RESURS DK-1 2.8 02:07:12 10° NNW 02:10:15 46° WNW 02:10:15 46° WNW
Cosmos 1626 Rocket 3.3 02:12:06 75° S 02:12:29 90° NW 02:16:51 10° N
Resurs 1-4 Rocket 2.9 02:08:20 10° NNE 02:13:24 44° E 02:15:34 29° SSE
SeaSat 1 2.4 02:11:35 35° SE 02:13:41 82° ENE 02:18:36 10° NNW
Nadezhda 1 Rocket 4.4 02:08:59 10° N 02:15:11 61° E 02:19:10 22° SSE
Cosmos 1745 Rocket 4.3 02:12:25 32° SSE 02:15:24 64° E 02:21:42 10° NNE
Meteor 2-2 Rocket 4.1 02:09:48 10° NNW 02:15:27 80° W 02:17:16 45° S
Cosmos 1697 Rocket 2.7 02:14:32 47° SW 02:16:04 68° WNW 02:21:44 10° NNE
Cosmos 1356 Rocket 4.4 02:20:04 10° NNW 02:22:59 32° WNW 02:22:59 32° WNW
FENGYUN 3A 3.6 02:20:35 10° NNE 02:26:00 84° ESE 02:27:58 41° S
Cosmos 2227 Rocket 2.3 02:21:01 10° NNW 02:26:43 76° ENE 02:31:20 16° SSE
Cosmos-2242 3.2 02:25:18 10° NNW 02:29:21 50° W 02:29:26 50° W
MSX 3.9 02:23:43 10° N 02:29:22 62° WNW 02:31:23 39° SW
Cosmos 1709 Rocket 4.4 02:25:57 25° SSE 02:29:44 60° E 02:35:58 10° NNE
ISS -0.9 02:27:23 10° NNW 02:29:57 20° NNE 02:32:30 10° ENE
Okean 1 3.6 02:29:38 10° N 02:33:18 56° E 02:34:27 38° SE
H-2A R/B 1.9 02:29:37 10° NNE 02:33:48 84° WNW 02:34:42 55° SSW
Cosmos 1932 4.4 02:31:45 38° SSW 02:34:18 86° WNW 02:40:41 10° NNE
Okean 1-7 Rocket 3.8 02:35:08 39° SSE 02:36:39 67° E 02:41:06 10° NNE
SL-23 DEB 4.1 02:37:57 38° SE 02:37:57 38° SE 02:40:49 10° ENE
ATLAS 2AS CENTAUR R/B 4.3 02:32:22 10° NNW 02:38:31 35° NE 02:44:34 10° ESE
USA 32 4.2 02:39:36 40° SW 02:41:14 58° W 02:46:24 10° N
NPP 4.1 02:40:29 10° N 02:45:38 47° WNW 02:47:39 32° WSW
ALOS 2.7 02:42:11 10° NNE 02:46:41 54° E 02:49:03 26° SSE
Cosmos 1743 4.4 02:45:31 16° SE 02:47:15 24° E 02:50:01 10° NE
Cosmos 1125 Rocket 3.9 02:46:24 34° WSW 02:48:18 50° WNW 02:53:27 10° N
Cosmos 192 4.3 02:46:47 38° SSW 02:48:43 89° ESE 02:53:40 10° NNE
COSMOS 2441 4.4 02:44:20 10° N 02:49:11 67° WNW 02:51:05 36° SW
Cosmos 2221 2.6 02:45:49 10° N 02:50:04 71° E 02:52:32 24° SSE
Cosmos 2298 Rocket 4.2 02:48:25 29° S 02:51:08 67° ESE 02:56:24 10° NNE
DELTA 2 R/B (1) 3.5 02:48:05 21° W 02:51:53 87° S 02:57:30 10° E
Cosmos 2151 2.8 02:51:45 39° S 02:53:17 88° E 02:57:27 10° N
Cosmos 2369 3.7 03:01:07 27° SSW 03:04:22 82° ESE 03:10:02 10° NNE
Meteor 2-11 Rocket 4.4 03:04:17 25° SSW 03:07:56 69° W 03:14:02 10° N
IDEFIX/ARIANE 42P 4.0 03:06:42 10° NNW 03:10:41 23° WNW 03:12:57 17° W
Cosmos 1812 Rocket 3.8 03:06:45 10° NNW 03:11:00 50° W 03:12:55 29° SSW
Lacrosse 5 rocket 4.5 03:10:23 10° N 03:12:35 14° NNE 03:14:46 10° ENE
Meteor 1-20 Rocket 4.4 03:08:16 18° S 03:12:39 81° E 03:18:30 10° NNE
Cosmos 2082 4.2 03:11:02 10° NNW 03:16:41 62° ENE 03:22:15 10° SE
USA 234 3.6 03:12:58 10° NE 03:19:23 58° SE 03:24:13 18° SSW
CZ-3 R/B 4.1 02:41:27 10° WSW 03:24:02 56° S 03:34:56 10° ESE
Cosmos 1733 4.0 03:22:24 12° SSE 03:24:48 35° E 03:27:35 10° NNE
Cosmos 1825 Rocket 3.7 03:22:38 25° SSW 03:24:57 55° W 03:29:13 10° N
Cosmos 921 Rocket 3.1 03:20:49 10° NNW 03:25:15 78° ENE 03:29:36 10° SSE
Cosmos 2219 3.1 03:19:34 10° NNW 03:25:17 86° WSW 03:30:55 10° SSE
SL-16 R/B 3.2 03:20:31 10° S 03:25:48 43° ESE 03:31:07 10° NE
ADEOS II 2.2 03:22:15 10° N 03:27:24 59° WNW 03:31:01 19° SW
SL-16 R/B 2.9 03:22:04 10° SSE 03:28:15 69° ENE 03:34:29 10° N
Envisat 3.0 03:24:26 10° N 03:29:29 68° WNW 03:33:16 18° SSW
Cosmos 1238 Rocket 3.7 03:25:23 10° NNW 03:30:31 52° W 03:34:33 15° SSW
NOAA 11 4.4 03:26:38 10° N 03:31:57 56° WNW 03:35:56 18° SW
Cosmos 2263 Rocket 2.2 03:26:43 10° NNW 03:32:16 62° WSW 03:37:46 10° S
METEOR-M 4.2 03:32:16 10° NNE 03:37:38 84° ESE 03:42:54 10° SSW
Cosmos 1076 Rocket 3.4 03:34:16 16° SSW 03:37:39 75° W 03:41:56 10° N
Gbstr 26 Del rocket 4.3 03:31:20 10° NW 03:38:10 89° SW 03:45:58 10° SE
Cosmos 2297 Rocket 4.1 03:37:21 10° W 03:38:16 10° W 03:38:27 10° W
CZ-2D R/B 3.0 03:34:20 10° N 03:38:58 33° WNW 03:42:23 16° WSW
DMSP B5D2-2 4.0 03:34:23 10° S 03:39:36 74° WSW 03:44:51 10° NNW
OAO 2 Rocket 3.8 03:41:22 17° WSW 03:44:50 44° S 03:49:39 10° E
Tiangong -1.7 03:42:58 12° W 03:46:00 65° N 03:49:16 10° E
H-2A R/B 3.9 03:42:47 10° NNE 03:46:38 56° E 03:50:25 10° S
Meteor 1-27 Rocket 3.8 03:42:25 10° N 03:48:23 85° W 03:54:18 10° S
Cosmos 2074 Rocket 4.1 03:43:00 10° S 03:49:11 82° E 03:55:24 10° N
Cosmos 2237 4.2 03:44:35 14° SSW 03:49:32 79° WNW 03:55:15 10° NNE
Cosmos 1980 Rocket 3.5 03:46:59 12° WSW 03:51:03 26° NW 03:55:44 10° N
SeaSat 1 4.2 03:51:11 12° WSW 03:51:32 12° WSW 03:53:17 10° W
Resurs 1-4 Rocket 3.5 03:48:44 10° NNW 03:52:51 23° WNW 03:56:37 11° WSW
Meteor 1-25 Rocket 4.4 03:48:43 12° SSW 03:53:47 58° WNW 03:59:20 10° N
Cosmos 1346 Rocket 3.5 03:53:47 15° SW 03:56:16 33° WNW 03:59:38 10° N
Cosmos 1842 Rocket 3.5 03:53:43 10° N 03:58:10 83° W 04:02:31 10° S
BlueWalker 3 2.0 03:57:37 10° NW 04:01:15 74° NE 04:04:53 10° SE
H-2A R/B 1.9 03:57:07 10° N 04:02:07 81° WNW 04:07:00 10° SSW
Cosmos 2181 Rocket 4.1 03:58:37 10° NNW 04:04:41 59° W 04:10:39 10° S
ISS -3.9 04:03:38 10° NW 04:06:59 75° SW 04:10:19 10° SE
Cosmos 2227 Rocket 3.9 04:07:16 10° WNW 04:09:59 14° W 04:12:41 10° SW
USA 290 3.7 04:11:48 10° NW 04:14:16 20° WSW 04:16:42 10° SSW
BREEZE M DEB (TANK) 4.4 04:11:12 10° NW 04:14:34 60° NNE 04:24:47 10° ESE
Cosmos 2278 3.8 04:11:10 10° SSW 04:16:47 73° WNW 04:22:26 10° NNE
CENTAUR R/B 2.6 04:12:37 10° SSW 04:17:47 67° ESE 04:24:15 10° NE
Cosmos 1842 2.8 04:15:36 10° NNW 04:19:00 72° W 04:22:22 10° S
Cosmos 1269 Rocket 4.0 04:13:52 10° NNW 04:19:11 84° WSW 04:24:27 10° SSE
Cosmos 1743 4.4 04:19:20 10° WSW 04:21:18 15° WNW 04:23:16 10° NW
CZ-2C R/B 2.5 04:18:05 10° NNE 04:23:03 86° WNW 04:28:08 10° SSW
ALOS 4.1 04:20:35 10° NNW 04:23:12 15° WNW 04:25:50 10° W
ACS3 Solar Sail 3.9 04:22:20 10° NE 04:27:14 26° E 04:32:14 10° SSE
